Weather in Otradnaya

Russia / Krasnodar Krai     45°36′56″N   40°06′57″E
temp.,
°C
wind,
m/s
gust,
m/s
humid.,
%
clouds,
%
prec.,
mm/h
press.,
hPa
HPBL,
m
8 march, mon
mon800:00−1wsw38590 0.0 1022268
03:00−1wsw410560 0.0 1021309
06:00−1sw49610 0.0 1020227
09:00+2wsw58470 0.0 10191086
12:00+5wsw68460 0.0 10181505
15:00+5wsw695617 0.0 10171607
18:00+3wsw4967100 0.1 1017318
21:00+1sw5119265 0.1 1017370
9 march, tue
tue900:000sw5148740 0.0 1017490
03:00+1sw5139070 0.0 1016466
06:00+1sw51192100 0.0 1016442
09:00+2wsw7138799 0.3 1016914
12:00+3wsw71291100 1.1 1016727
15:00+4w4781100 2.4 1017757
18:00+3wnw3872100 0.3 1018415
21:00−1w497460 0.3 1020239
10 march, wed
wed1000:00−1w387367 0.0 1021215
03:00−2wnw248157 0.0 1022138
06:00−2wnw24770 0.0 1024121
09:000nnw24562 0.0 1025717
12:00+2nnw334573 0.0 10241125
15:00+3nne334487 0.0 10221101
18:000ene3758100 0.0 1021262
21:00−1ene5962100 0.0 1022439
11 march, thu
thu1100:00−1ene61156100 0.0 1021602
03:00−2ene71261100 0.0 1020679
06:00−2ene81257100 0.0 1021779
09:00−1ene81250100 0.0 1021940
12:00+1ene91141100 0.0 10211278
15:00+1ene8113499 0.0 10211459
18:00−1ene694534 0.0 1023974
21:00−3ene6115317 0.0 1026640
12 march, fri
fri1200:00−4ene59500 0.0 1027603
03:00−4ene48480 0.0 1028644
06:00−5ene58460 0.0 1029580
09:00−3e68390 0.0 1029821
12:000e56350 0.0 10271063
15:00+2e56390 0.0 10261207
18:00−1ese475676 0.0 1026265
21:00−3ese6116977 0.0 1025445